Flag for U.S.A. Weather past 2 weeks in New Haven, Connecticut, U.S.A.

Now
51 °F

Clear.


Feels Like: 51 °F
Forecast: 48 / 77 °F
Wind: No wind

Location: Tweed-New Haven Airport

Current Time: May 24, 2015 at 4:27:21 AM

Latest Report: May 24, 2015 at 3:53 AM


Visibility: 10 mi

Pressure: 30.34 "Hg

Humidity: 86%

Dew point: 47 °F

Location of New HavenLocation

Historic Weather in New Haven — Graph

°F

New Haven temperature yesterday

Maximum temperature yesterday: 60 °F (at 4:53 PM)
Minimum temperature yesterday: 47 °F (at 5:53 AM)
Average temperature yesterday: 54 °F

Past Weeks' High & Low Weather Summary

 TemperatureHumidityPressure
High77 °F (May 11, 1:53 PM)100% (May 9, 4:53 AM)30.40 "Hg (May 9, 4:53 AM)
Low43 °F (May 15, 3:53 AM)25% (May 14, 11:53 AM)29.71 "Hg (May 12, 6:53 PM)
Average60 °F71%30.09 "Hg
* Reported May 9 2:00 AM — May 24 2:53 AM, New Haven, Weather by CustomWeather, © 2015

Note: Actual official high and low records may vary slightly from our data, if they occured in-between our weather recording intervals... More about our weather records

Advertising

New Haven weather history for previous 24 hours

 ConditionsComfort  
Time TempWeatherWind HumidityBarometerVisibility
2:53 AM
Sun, May 24
52 °FClear.No wind86%30.34 "Hg10 mi
1:53 AM53 °FClear.5 mph83%30.33 "Hg10 mi
12:53 AM53 °FClear.7 mph80%30.34 "Hg10 mi
11:53 PM
Sat, May 23
53 °FClear.6 mph80%30.35 "Hg10 mi
10:53 PM53 °FClear.7 mph74%30.35 "Hg10 mi
9:53 PM54 °FClear.9 mph69%30.34 "Hg10 mi
8:53 PM56 °FSunny.8 mph62%30.33 "Hg10 mi
7:53 PM58 °FSunny.6 mph46%30.32 "Hg10 mi
6:53 PM60 °FSunny.8 mph36%30.32 "Hg10 mi
5:53 PM60 °FSunny.9 mph38%30.33 "Hg10 mi
4:53 PM60 °FSunny.12 mph39%30.33 "Hg10 mi
3:53 PM59 °FSunny.14 mph44%30.35 "Hg10 mi
2:53 PM58 °FSunny.12 mph46%30.36 "Hg10 mi
1:53 PM57 °FSunny.14 mph47%30.37 "Hg10 mi
12:53 PM58 °FSunny.6 mph27%30.38 "Hg10 mi
11:53 AM56 °FSunny.8 mph32%30.40 "Hg10 mi
10:53 AM54 °FSunny.7 mph33%30.40 "Hg10 mi
9:53 AM52 °FSunny.9 mph35%30.39 "Hg10 mi
8:53 AM50 °FSunny.8 mph38%30.38 "Hg10 mi
7:53 AM49 °FSunny.10 mph39%30.37 "Hg10 mi
6:53 AM48 °FSunny.7 mph46%30.34 "Hg10 mi
5:53 AM47 °FClear.14 mph52%30.32 "Hg10 mi
4:53 AM48 °FClear.6 mph50%30.29 "Hg10 mi
Weather by CustomWeather, © 2015

See weather overviewHow to use our weather pages